CST,Max TemperatureF,Mean TemperatureF,Min TemperatureF,Max Dew PointF,MeanDew PointF,Min DewpointF,Max Humidity, Mean Humidity, Min Humidity, Max Sea Level PressureIn, Mean Sea Level PressureIn, Min Sea Level PressureIn, Max VisibilityMiles, Mean VisibilityMiles, Min VisibilityMiles, Max Wind SpeedMPH, Mean Wind SpeedMPH, Max Gust SpeedMPH,PrecipitationIn, CloudCover, Events, WindDirDegrees
2013-12-1,38,28,17,25,21,16,92,76,59,30.20,30.11,29.95,10,7,2,7,1,8,0.00,1,,121
2013-12-2,36,27,18,32,28,17,100,91,82,29.96,29.78,29.66,6,3,1,16,7,24,0.27,7,Rain-Snow,110
2013-12-3,34,32,30,34,31,28,100,93,85,29.82,29.74,29.66,10,6,0,16,10,22,0.20,8,Fog-Rain-Snow,88
2013-12-4,34,29,24,34,31,21,100,91,81,29.81,29.56,29.42,10,6,2,25,10,31,0.30,8,Rain-Snow,138
2013-12-5,24,13,2,17,3,-3,88,77,66,30.35,30.04,29.64,10,10,7,26,14,35,T,6,Snow,254
2013-12-6,7,2,-4,-3,-6,-10,87,78,68,30.67,30.51,30.37,10,10,7,14,9,17,0.00,1,,269
2013-12-7,2,-4,-10,-8,-11,-15,82,72,62,30.77,30.70,30.65,10,10,10,12,6,15,0.00,0,,256
2013-12-8,11,4,-3,7,2,-8,87,78,69,30.62,30.28,30.02,10,3,1,10,5,12,0.12,8,Snow,74
2013-12-9,10,2,-7,7,-4,-12,83,73,62,30.16,30.04,29.93,10,7,2,22,10,28,T,5,Snow,245
2013-12-10,8,2,-4,2,-3,-9,95,79,63,30.25,29.95,29.77,10,6,2,21,9,25,0.03,6,Snow,232
2013-12-11,7,-1,-9,1,-11,-15,80,66,51,30.58,30.47,30.19,10,10,7,15,8,18,T,2,Snow,269
2013-12-12,18,7,-4,10,-1,-8,86,74,61,30.39,30.28,30.19,10,8,2,10,3,13,0.03,6,Snow,205
2013-12-13,18,15,11,11,6,3,80,71,61,30.33,30.24,30.14,10,10,3,17,10,22,T,8,Snow,54
2013-12-14,16,11,6,11,8,0,88,82,76,30.31,30.15,29.99,10,4,2,17,6,22,0.08,8,Snow,2
2013-12-15,6,-3,-12,-1,-10,-14,86,70,53,30.22,30.15,30.06,10,10,10,17,7,22,0.00,2,,294
2013-12-16,16,5,-7,13,0,-12,88,77,65,30.20,30.05,29.90,10,7,0,14,4,17,0.10,8,Fog-Snow,177
2013-12-17,31,18,5,27,17,0,92,77,61,30.12,29.92,29.80,10,7,1,22,12,29,0.06,7,Snow,266
2013-12-18,29,14,-1,19,11,-3,100,79,58,30.10,29.80,29.65,10,7,0,15,4,,0.00,1,Fog,183
2013-12-19,22,17,12,18,13,10,92,80,67,30.08,29.95,29.75,10,8,2,15,8,22,T,3,Snow,3
2013-12-20,20,18,16,16,13,10,84,76,67,30.04,29.94,29.83,10,8,2,16,5,20,0.01,8,Snow,34
2013-12-21,25,23,20,17,16,15,91,80,68,30.00,29.93,29.83,10,10,10,13,5,17,T,8,,28
2013-12-22,26,21,15,22,18,11,92,83,74,30.19,30.01,29.87,10,4,2,12,7,16,0.05,8,Snow,337
2013-12-23,15,4,-8,11,1,-11,92,82,72,30.52,30.31,30.13,10,4,1,14,9,17,0.04,7,Snow,258
2013-12-24,11,0,-12,6,-2,-15,87,77,66,30.53,30.36,30.16,10,6,0,17,7,24,0.21,6,Fog-Snow,176
2013-12-25,19,14,9,16,9,3,88,81,74,30.19,30.11,30.01,10,7,2,14,6,18,0.01,8,Snow,215
2013-12-26,22,16,10,16,11,7,92,80,68,30.22,30.16,30.09,10,8,0,10,2,13,T,7,Fog-Snow,196
2013-12-27,38,20,1,28,15,0,96,80,64,30.22,30.08,29.92,10,6,1,16,6,21,0.00,2,,207
2013-12-28,43,30,16,31,21,12,100,79,57,30.01,29.87,29.70,10,4,0,20,4,28,T,3,Fog,289
2013-12-29,26,6,-15,20,-5,-19,88,67,45,30.35,30.18,29.88,10,10,4,21,11,31,T,5,,327
2013-12-30,-2,-10,-18,-7,-13,-23,87,74,61,30.37,30.28,30.18,10,6,2,7,1,8,0.01,6,Snow,266
2013-12-31,0,-10,-20,-6,-13,-23,92,75,58,30.48,30.35,30.23,10,9,3,14,5,17,T,3,,285